www.pogodaiklimat.ru

Погода и климат >> Архив погоды >> Украина >> Болград


ПОГОДА в Болграде

  • Прогноз погоды в Болграде
  • Монитор погоды в Болграде

АРХИВ ПОГОДЫ в Болграде

Время (UTC), дата Ветер
(напр.,м/с)
 
Видим.   Явления Облачность Т
(С)
Тd
(С)
f
(%)
Тe
(С)
Тes
(С)
Комфортность P
(гПа)
Po
(гПа)
Тmin
(С)
Tmax
(С)
R
(мм)
R24
(мм)
S
(см)
12 13.09 СЗ 3 10 км 3/0
[Ci fib]
+30.0 +4.6 20 +28 +35 жарко 1023.3 1014.0
15 13.09 СЗ 3 4000 м ясно +29.5 +2.7 18 +27 +28 жарко 1022.2 1012.9
18 13.09 Ю 1 4000 м ясно +22.0 +6.7 37 +23 +23 комфорт 1023.9 1014.3 +30.3
21 13.09 штиль 0 4000 м ясно +16.9 +8.4 57 +17 +17 1023.7 1014.0
00 14.09 С 1 4000 м 1/0
[Ac lent]
+15.0 +7.1 59 +16 +16 1023.4 1013.6
03 14.09 С 2 4000 м 5/0
[Ac trans]
+15.3 +5.2 51 +15 +15 1023.0 1013.2
06 14.09 СЗ 4 10 км 6/4 600 м
[Sc Ci fib]
+19.0 +8.1 49 +20 +21 1023.5 1013.8 +14.3
09 14.09 С 4 10 км 8/8 600 м
[Sc]
+25.5 +8.9 35 +26 +27 жарко 1023.5 1014.1
12 14.09 СЗ 3 10 км 8/5 600 м
[Sc Ci fib]
+27.6 +8.9 31 +28 +31 жарко 1022.7 1013.3
15 14.09 С 5 10 км 9/9 600 м
[Cu Sc]
+23.6 +12.0 48 +25 +25 комфорт 1023.3 1013.8
18 14.09 С 4 4000 м 8/3 1000 м
[Sc Ac und]
+19.4 +9.8 54 +20 +20 1025.3 1015.6 +27.9
21 14.09 С 3 4000 м 6/0
[Ci fib]
+16.5 +6.6 52 +16 +16 1026.5 1016.7
00 15.09 СЗ 2 4000 м 4/0
[Ci fib]
+13.6 +5.8 59 +13 +13 1027.2 1017.3
03 15.09 С 2 4000 м ясно +11.6 +4.3 61 +11 +11 1027.3 1017.4
06 15.09 С 3 10 км 8/0
[Ci fib]
+14.0 +4.6 53 +13 +15 1027.6 1017.7 +10.4
12 15.09 С 2 10 км 3/0
[Ci fib]
+23.5 +1.8 24 +23 +31 комфорт 1024.3 1014.8
15 15.09 ЮЗ 2 10 км 3/0
[Ci fib]
+24.2 +3.0 25 +23 +24 комфорт 1022.8 1013.3
18 15.09 Ю 1 4000 м 3/0
[Ci fib]
+18.4 +5.2 42 +20 +20 1022.3 1012.6 +24.5
21 15.09 Ю 2 4000 м ясно +16.1 +8.1 59 +16 +16 1021.2 1011.5
00 16.09 штиль 0 4000 м ясно +12.8 +8.1 73 +12 +12 1019.7 1009.9
03 16.09 ЮЗ 1 4000 м ясно +14.5 +8.6 68 +15 +15 1018.3 1008.5
06 16.09 З 2 10 км 1/0
[Ci fib]
+16.8 +9.0 60 +17 +20 1017.8 1008.1 +12.2
09 16.09 СЗ 2 10 км ясно +24.3 +4.6 28 +24 +34 комфорт 1016.7 1007.3
12 16.09 С 3 10 км ясно +27.2 +2.3 20 +26 +33 жарко 1014.6 1005.3
15 16.09 З 2 10 км ясно +27.4 +2.5 20 +26 +26 жарко 1013.1 1003.8
18 16.09 штиль 0 4000 м ясно +19.0 +5.8 42 +19 +19 1013.2 1003.6 +28.3
21 16.09 ЮВ 2 4000 м ясно +16.1 +5.7 50 +16 +16 1012.9 1003.3
00 17.09 С 1 4000 м ясно +14.4 +9.6 73 +15 +15 1012.0 1002.3
03 17.09 штиль 0 4000 м 5/0
[Ac trans]
+13.1 +6.5 64 +13 +13 1011.2 1001.5
06 17.09 С 4 10 км 9/3 1000 м
[Sc Ac und Cc]
+19.3 +7.1 45 +20 +21 1012.2 1002.7 +12.8
09 17.09 С 3 10 км 9/3 1000 м
[Sc Ac und Cc]
+22.3 +8.4 41 +24 +27 комфорт 1012.8 1003.4
12 17.09 СЗ 3 10 км 10/3 1000 м
[Cb cap Ac As]
+24.5 +9.7 39 +25 +27 комфорт 1011.7 1002.3
15 17.09 З 1 10 км 9/4 1000 м
[Cb cap Ac cast Cc]
+24.2 +10.8 43 +25 +26 комфорт 1010.9 1001.5
18 17.09 Ю 2 4000 м 10/10 600 м
[Sc]
+21.8 +11.0 50 +24 +24 комфорт 1010.9 1001.5 +24.9
21 17.09 Ю 2 4000 м 10/10 600 м
[Sc]
+20.2 +13.5 65 +23 +23 комфорт 1010.0 1000.5
00 18.09 Ю 2 4000 м 6/3 1000 м
[Sc Ac lent]
+20.4 +11.8 58 +23 +23 комфорт 1008.7 999.2
06 18.09 СЗ 1 10 км 9/9 600 м
[Sc]
+18.5 +11.6 64 +20 +20 1009.7 1000.2 +16.5
12 18.09 С 4 10 км 8/8 600 м
[Sc]
+16.7 +4.4 44 +16 +17 1014.7 1005.0
18 18.09 С 1 4000 м 3/0
[Ci fib]
+13.1 +2.9 50 +14 +14 1018.7 1008.9 +19.5
00 19.09 штиль 0 4000 м 3/0
[Ac trans Ci fib]
+7.2 +0.8 64 +7 +7 1022.7 1012.6
06 19.09 С 1 10 км 9/0
[Ac trans]
+11.6 +1.5 50 +12 +13 1023.4 1013.5 +6.1
12 19.09 Ю 4 10 км 9/8 600 м
[Sc Ac trans Ci fib]
+18.2 +0.3 30 +18 +19 1021.6 1011.9
18 19.09 ЮВ 1 4000 м {ливн. осадки} 6/6 600 м
[Sc]
+11.3 +7.4 77 +11 +11 1021.5 1011.6 +18.3 2
00 20.09 С 1 4000 м {ливн. осадки} 10/10 600 м
[Cb cap]
+10.3 +7.7 84 +10 +10 1021.2 1011.3
06 20.09 СЗ 2 10 км 5/3 600 м
[Sc Ac trans Ci sp]
+11.4 +5.1 65 +10 +12 1021.8 1011.9 +9.8 0.0

 

Местоположение метеостанции Болград (Одесская область, Украина): широта 45.67 долгота 28.62 высота над уровнем моря 81 м.

В архиве по умолчанию представлена погода в Болграде за последнюю неделю. Архивные данные за месяц целиком и за предыдущие месяцы, начиная с января 2011 года, Вы можете получить, выбрав интересующий диапазон дат из раскрывающегося списка и нажав кнопку "Ввод!".


*Определитесь, кто Вы:
робот инопланетянин человек

Внимание! Время в таблицах - всемирное. Для получения местного времени необходимо прибавить поправку, которая равна 2 ч.

Смотрите также архив погоды в соседних городах и на ближайших метеорологических станциях:

Погода в Измаиле (Одесская область, Украина) (38 км)
Погода в Кагуле (Молдова) (38 км)
Погода в Галаце (Румыния) (51 км)
Погода в Чадыр-Лунге (Молдова) (53 км)
Погода в Тулче (Румыния) (57 км)
Погода в Горгове (Румыния) (69 км)
Погода в Комрате (Молдова) (70 км)
Погода в Махмудиа (Румыния) (74 км)
Погода в Брэиле (Румыния) (76 км)
Погода в Вилково (Одесская область, Украина) (76 км)

Пояснения к столбцам:

Ветер - указаны скорость ветра в м/с - средняя за 10 мин, порывы в срок и между сроками (в фигурных скобках) и направление, откуда дует ветер: С - северный, СВ - северо-восточный, В - восточный, ЮВ - юго-восточный, Ю - южный, ЮЗ - юго-западный, З - западный, СЗ - северо-западный.
Видимость - горизонтальная дальность видимости в метрах или километрах. При видимости от 1 до 10 км при отсутствии осадков обычно наблюдается дымка, при ухудшении видимости до 1 км и менее - туман. В сухую погоду видимость может ухудшаться дымом, пылью или мглою.
Явления - указаны атмосферные явления, наблюдавшиеся в срок или в последний час перед сроком; фигурными скобками обозначены явления, наблюдавшиеся между сроками (за 1-3 часа до срока); квадратными скобками обозначены град или гололедные отложения с указанием их диаметра в мм.
Облачность - указаны через наклонную черту общая и нижняя облачность в баллах и высота нижней границы облаков в метрах; квадратными скобками обозначены формы облаков: Ci - перистые, Cs - перисто-слоистые, Cc - перисто-кучевые, Ac - высококучевые, As - высокослоистые, Sc - слоисто-кучевые, Ns - слоисто-дождевые, Cu - кучевые, Cb - кучево-дождевые. Подробнее классификацию облаков см. в Атласе облаков (PDF).
T - Температура воздуха - температура, измеренная на высоте 2 м над землей.
Td - Температура точки росы - температура, при понижении до которой содержащийся в воздухе водяной пар достигнет насыщения.
f - Относительная влажность воздуха - влажноcть воздуха, измеренная на высоте 2 м над землей.
Te - Эффективная температура - температура, которую ощущает одетый по сезону человек в тени. Характеристика душности погоды. При расчете учитывается влияние влажности воздуха и скорости ветра на теплоощущения человека.
Tes - Эффективная температура на солнце - температура, которую ощущает человек, с поправкой на солнечный нагрев. Характеристика знойности погоды. Зависит от высоты солнца над горизонтом, облачности и скорости ветра. Ночью, в пасмурную погоду, а также при ветре 12 м/с и более поправка равна нулю.
P - Атмосферное давление - приведенное к уровню моря атмосферное давление.
Po - Атмосферное давление - измеренное на уровне метеостанции атмосферное давление.
Tmin - Минимальная температура - минимум температуры воздуха на высоте 2 м над землей.
Tmax - Максимальная температура - максимум температуры воздуха на высоте 2 м над землей.
R - Количество осадков - Количество выпавших осадков за период времени, мм. При наведении курсора мыши на число - период времени, за который выпало указанное количество осадков.
R24 - Количество осадков - Количество выпавших осадков за 24 часа, мм.
S - Снежный покров - Высота снежного покрова, см. При наведении курсора мыши на число - состояние снежного покрова и степень покрытия местности в баллах.